Regional Weather Roundup
Issued by NWS

Home | Current Version | Previous Version | Graphics & Text | Print | Product List | Glossary Off
Versions: 1 2 3 4 5 6 7 8 9 10 11 12 13 14 15 16 17 18 19 20 21 22 23 24 25 26 27 28 29 30 31 32 33 34 35 36 37 38 39 40 41 42 43 44 45 46 47 48 49 50

000
ASUS43 KMKX 030500
RWRWI

WISCONSIN REGIONAL WEATHER ROUNDUP
NATIONAL WEATHER SERVICE MILWAUKEE/SULLIVAN WI
1200 AM CDT MON AUG 03 2015

NOTE: "FAIR" INDICATES FEW OR NO CLOUDS BELOW 12,000 FEET WITH NO
SIGNIFICANT WEATHER AND/OR OBSTRUCTIONS TO VISIBILITY.

WIZ001-002-006>008-014>016-023>028-030600-
NORTHWEST WISCONSIN

CITY           SKY/WX    TMP DP  RH WIND       PRES   REMARKS
SUPERIOR ARPT  CLOUDY    64  50  59 W6        29.76R
ASHLAND        PTCLDY    56  50  80 SW6       29.75R
HAYWARD        CLEAR     60  49  66 CALM      29.79R
SIREN          CLEAR     59  48  68 W6        29.81S
CUMBERLAND     CLEAR     55  46  71 W6        29.81S
RICE LAKE      CLEAR     60  49  68 CALM      29.82S
CHETEK         CLEAR     62  51  67 W5        29.80S
LADYSMITH      CLEAR     62  51  67 W7        29.80R
EAU CLAIRE     CLEAR     64  48  56 NW3       29.80R
MENOMONIE      CLEAR     65  47  51 N7        29.82R
NEW RICHMOND   CLEAR     61  51  69 NW5       29.83R
OSCEOLA        CLEAR     58  53  83 CALM      29.85R
$$

WIZ003>005-009-010-017-018-030600-
NORTH CENTRAL WISCONSIN

CITY           SKY/WX    TMP DP  RH WIND       PRES   REMARKS
MANITOWISH WTR   N/A     53  53 100 CALM      29.75S FOG
ARBOR VITAE    CLEAR     59  54  83 NW5       29.75S
WOODRUFF       CLEAR     59  54  83 NW5       29.75S
RHINELANDER    FAIR      57  54  89 W6        29.76R
EAGLE RIVER    PTCLDY    57  51  81 W3        29.74R
LAND O LAKES   CLEAR     59  51  75 W5        29.74S
PHILLIPS       PTCLDY    58  53  83 CALM      29.77R
TOMAHAWK       PTCLDY    57  53  87 W3        29.77R
MEDFORD        MOCLDY    62  53  72 NW6       29.78R
MERRILL        NOT AVBL
$$

WIZ029-030-035-036-043>047-030600-
CENTRAL WISCONSIN

CITY           SKY/WX    TMP DP  RH WIND       PRES   REMARKS
WAUSAU         MOCLDY    66  57  72 NW7       29.75R
MOSINEE        PTCLDY    63  57  82 NW5       29.77R
MARSHFIELD     PTCLDY    63  56  78 NW6       29.78R
STEVENS POINT  MOCLDY    64  56  75 CALM      29.76R
WAUPACA        PTCLDY    68  59  72 W5        29.73S
WAUTOMA        NOT AVBL
WISC RAPIDS    CLEAR     65  56  72 CALM      29.78R
CAMP DOUGLAS   NOT AVBL
$$

WIZ011>013-019>022-031-037>040-048>050-030600-
NORTHEAST WISCONSIN

CITY           SKY/WX    TMP DP  RH WIND       PRES   REMARKS
ANTIGO         CLEAR     58  56  93 NW6       29.75R
SHAWANO        PTCLDY    66  61  84 W5        29.71S
OCONTO         CLOUDY    63  63 100 CALM      29.70R
STURGEON BAY   CLOUDY    64  59  82 W5        29.71R
GREEN BAY      MOCLDY    64  62  93 W7        29.71R
MANITOWOC      NOT AVBL
APPLETON       MOCLDY    63  61  94 W9        29.72R
CLINTONVILLE   PTCLDY    64  57  77 NW7       29.72R
OSHKOSH        PTCLDY    66  62  87 W5        29.72R
$$

WIZ032>034-041-042-053>061-030600-
SOUTHWEST WISCONSIN

CITY           SKY/WX    TMP DP  RH WIND       PRES   REMARKS
LA CROSSE      MOCLDY    74  59  59 NW15      29.79R
SPARTA         PTCLDY    71  55  56 NW8       29.78R
VIROQUA        PTCLDY    69  60  72 NW8       29.79S
BOSCOBEL       PTCLDY    70  64  81 W3        29.77R
PRAIRIE DU CHI CLEAR     74  59  60 W8        29.76S
PLATTEVILLE    MOCLDY    73  65  75 NW5       29.78R
$$

WIZ056-057-062-063-064-067-068-030600-
SOUTH CENTRAL WISCONSIN

CITY           SKY/WX    TMP DP  RH WIND       PRES   REMARKS
REEDSBURG      PTCLDY    70  62  75 W3        29.74S
BARABOO/DELLS  CLEAR     72  56  58 NW7       29.75S
LONE ROCK      NOT AVBL
MINERAL POINT  MOCLDY    72  61  68 NW6       29.77R
MADISON        CLEAR     72  59  63 NW6       29.74R
MIDDLETON      CLEAR     69  61  74 NW3       29.75R
WATERTOWN      CLEAR     65  65 100 CALM      29.72R
MONROE         PTCLDY    73  63  68 NW7       29.75S
JANESVILLE     CLOUDY    73  63  68 E5        29.73R
$$

WIZ051-052-058>065-066-070>072-030600-
SOUTHEAST WISCONSIN

CITY           SKY/WX    TMP DP  RH WIND       PRES   REMARKS
MILWAUKEE      PTCLDY    69  59  70 NW6       29.70R
WAUKESHA       PTCLDY    64  54  68 CALM      29.73S
MILWAUKEE/TIMM PTCLDY    64  55  72 CALM      29.73R
RACINE         MOCLDY    67  63  87 CALM      29.72R
BURLINGTON     PTCLDY    66  59  80 CALM      29.72S
KENOSHA        MOCLDY    67  65  93 CALM      29.73R
FOND DU LAC    PTCLDY    65  63  93 SW5       29.72R
SHEBOYGAN      PTCLDY    63  60  90 NW3       29.70R
WEST BEND      LGT RAIN  63  61  94 SW5       29.71S
JUNEAU         PTCLDY    63  61  94 SW3       29.74R
$$

LSZ147-162-030600-
LAKE SUPERIOR

STATION/POSITION TIME  TEMP    WIND        PRES    WAVE
                       AIR SEA DIR/SP/G            HT/PER
                 (UTC) (F)     (DEG/KT/KT) (MB)    (FT/S)
W MID LAKE BUOY  0350   61 56  320/ 14/ 17 1005.1R   1
DEVILS ISLAND    0400   62     300/ 11/ 12 1006.6R
PORT WING        0440   65     250/  7/ 10 1007.5R
SAXON HARBOR     0400   68                 1006.4
$$

LMZ867-665-643>646-030600-
LAKE MICHIGAN

STATION/POSITION TIME  TEMP    WIND        PRES    WAVE
                       AIR SEA DIR/SP/G            HT/PER
                 (UTC) (F)     (DEG/KT/KT) (MB)    (FT/S)
CHAMBERS ISLAND  0400   66     230/  3/  7 1004.7R
S GREEN BAY BUOY 0400   67 69  270/  6/  8 1006.3R
N MID LAKE BUOY  0350   67 68  260/ 10/ 12 1003.2R   2/ 5
NORTHPORT PIER   0400   65     220/  4/  6 1004.1S
ALGOMA LAKESHORE 0412             CALM       N/A
KEWAUNEE LAKESHO 0400   63     300/  4/  6 1004.4R
SHEBOYGAN LAKESH 0400   68     290/  5/  6 1005.2R
PORT WASHINGTON  0400   67     310/  5/  7 1006.1R
ATWATER BUOY     0400   62 46  310/  6/  6 1006.8S
MILWAUKEE LAKESH 0400   70     320/  7/  9   N/A
KENOSHA   LAKESH 0400   69      CALM  /  3 1006.1R
$$

TC  - TEMPERATURE IN CELSIUS
VSB - VISIBILITY IN STATUTE MILES
WCI - WIND CHILL INDEX
HX  - HEAT INDEX




USA.gov is the U.S. government's official web portal to all federal, state and local government web resources and services.